Grand Rapids, MI

12:06 AM EST on December 14, 2017 (GMT -0500)
Gerald R. Ford International

Weather History for KGRR - January, 2014

Change the Weather History Date:

Sunday, January 19, 2014

  Actual Average Record
Temperature  
Mean Temperature 23 °F 24 °F  
Max Temperature 33 °F 30 °F 56 °F (1907)
Min Temperature 12 °F 18 °F -22 °F (1994)
Degree Days  
Heating Degree Days 42 41  
Month to date heating degree days 834 770  
Since 1 July heating degree days 3354 3219  
Cooling Degree Days 0 0  
Month to date cooling degree days 0 0  
Year to date cooling degree days 0 0  
Moisture  
Dew Point 19 °F    
Average Humidity 82    
Maximum Humidity 92    
Minimum Humidity 72    
Precipitation  
Precipitation T in 0.06 in 1.84 in (1907)
Month to date precipitation 2.27 1.38  
Year to date precipitation 2.27 1.38  
Snow  
Snow T in 0.70 in 6.40 in (2003)
Month to date snowfall 19.5 13.2  
Since 1 July snowfall 56.4 42.4  
Snow Depth 7.00 in    
Sea Level Pressure  
Sea Level Pressure 29.65 in    
Wind  
Wind Speed 16 mph (SW)    
Max Wind Speed 29 mph    
Max Gust Speed 37 mph    
Visibility 7 miles    
Events Snow    
T = Trace of Precipitation, MM = Missing Value Source: NWS Daily Summary

Daily Weather History Graph

Daily Weather History Graph

Search for Another Location

Airport or City:

Trip Planner

Search our weather history database for the weather conditions in past years. The results will help you decide how hot, cold, wet, or windy it might be!

Date:

Astronomy

Jan. 19, 2014 Rise Set
Actual Time 8:07 AM EST 5:38 PM EST
Civil Twilight 7:36 AM EST 6:09 PM EST
Nautical Twilight 7:02 AM EST 6:43 PM EST
Astronomical Twilight 6:28 AM EST 7:17 PM EST
Moon 9:22 PM EST (1/19) 9:31 AM EST (1/19)
Length of Visible Light 10h 32m
Length of Day
9h 30m
Waning Gibbous, 89% of the Moon is Illuminated
Jan 19
Waning Gibbous
Jan 24
Last Quarter
Jan 30
New
Feb 6
First Quarter
Feb 14
Full

Hourly Weather History & Observations

Time (EST) Temp. Windchill Dew Point Humidity Pressure Visibility Wind Dir Wind Speed Gust Speed Precip Events Conditions
12:51 AM 15.8 °F 8.6 °F 8.6 °F 73% 29.78 in 2.0 mi SW 4.6 mph - 0.00 in Snow Light Snow
12:53 AM 15.1 °F 7.7 °F 10.0 °F 80% 29.82 in 2.0 mi SW 4.6 mph - 0.00 in Snow Light Snow
1:03 AM 15.8 °F 7.2 °F 12.2 °F 86% 29.77 in 4.0 mi SW 5.8 mph - 0.00 in   Overcast
1:16 AM 15.8 °F 7.2 °F 12.2 °F 86% 29.76 in 3.0 mi SW 5.8 mph - 0.00 in   Overcast
1:25 AM 15.8 °F 6.1 °F 12.2 °F 86% 29.76 in 2.5 mi SW 6.9 mph - 0.00 in   Overcast
1:33 AM 15.8 °F 6.1 °F 12.2 °F 86% 29.76 in 5.0 mi SW 6.9 mph - 0.00 in   Overcast
1:53 AM 16.0 °F 4.4 °F 12.0 °F 84% 29.78 in 6.0 mi SSW 9.2 mph - 0.00 in   Overcast
2:53 AM 18.0 °F 7.7 °F 14.0 °F 84% 29.78 in 6.0 mi SSW 8.1 mph - N/A   Overcast
3:53 AM 19.0 °F 8.2 °F 14.0 °F 81% 29.75 in 6.0 mi SSW 9.2 mph - N/A   Haze
4:53 AM 19.9 °F 6.7 °F 16.0 °F 85% 29.76 in 8.0 mi SW 13.8 mph - N/A   Overcast
5:53 AM 21.0 °F 9.9 °F 17.1 °F 85% 29.73 in 8.0 mi SW 10.4 mph - N/A   Overcast
6:26 AM 23.0 °F 10.1 °F 17.6 °F 80% 29.68 in 10.0 mi SW 15.0 mph - N/A   Overcast
6:53 AM 24.1 °F 10.1 °F 19.0 °F 81% 29.70 in 10.0 mi SW 18.4 mph 25.3 mph N/A   Overcast
7:53 AM 25.0 °F 10.9 °F 19.0 °F 78% 29.68 in 9.0 mi SW 19.6 mph 28.8 mph 0.00 in   Overcast
8:53 AM 25.0 °F 10.6 °F 19.0 °F 78% 29.65 in 9.0 mi SW 20.7 mph 27.6 mph N/A   Overcast
9:53 AM 25.0 °F 9.5 °F 19.0 °F 78% 29.64 in 7.0 mi WSW 24.2 mph 32.2 mph 0.00 in   Overcast
10:53 AM 25.0 °F 10.2 °F 19.0 °F 78% 29.62 in 8.0 mi SW 21.9 mph 32.2 mph N/A   Overcast
11:53 AM 26.1 °F 11.0 °F 21.0 °F 81% 29.62 in 4.0 mi WSW 24.2 mph 33.4 mph N/A   Haze
12:53 PM 28.0 °F 13.6 °F 23.0 °F 81% 29.61 in 5.0 mi WSW 24.2 mph 34.5 mph N/A   Haze
1:53 PM 28.9 °F 15.1 °F 23.0 °F 78% 29.59 in 7.0 mi WSW 23.0 mph 34.5 mph N/A   Overcast
2:53 PM 28.9 °F 14.8 °F 23.0 °F 78% 29.57 in 8.0 mi WSW 24.2 mph 32.2 mph N/A   Overcast
3:06 PM 30.2 °F 16.5 °F 23.0 °F 75% 29.54 in 9.0 mi WSW 24.2 mph 32.2 mph N/A   Overcast
3:53 PM 30.0 °F 18.7 °F 24.1 °F 79% 29.57 in 10.0 mi SW 16.1 mph - N/A   Overcast
4:53 PM 30.9 °F 18.4 °F 23.0 °F 72% 29.56 in 10.0 mi WSW 20.7 mph 29.9 mph N/A   Overcast
5:53 PM 30.9 °F 19.4 °F 24.1 °F 76% 29.56 in 10.0 mi WSW 17.3 mph - N/A   Overcast
6:53 PM 30.9 °F 19.4 °F 24.1 °F 76% 29.56 in 10.0 mi WSW 17.3 mph 23.0 mph N/A   Overcast
7:53 PM 32.0 °F 22.1 °F 25.0 °F 75% 29.56 in 10.0 mi SW 13.8 mph - N/A   Overcast
8:53 PM 32.0 °F 22.5 °F 26.1 °F 79% 29.54 in 10.0 mi SW 12.7 mph - N/A   Overcast
9:53 PM 32.0 °F 23.0 °F 27.0 °F 82% 29.52 in 9.0 mi SW 11.5 mph - N/A   Overcast
10:53 PM 33.1 °F 24.9 °F 27.0 °F 78% 29.51 in 8.0 mi WSW 10.4 mph - N/A   Overcast
11:53 PM 33.1 °F 27.7 °F 28.0 °F 82% 29.52 in 7.0 mi West 5.8 mph - N/A   Overcast